Overview Statistics Trail Chart Weather Telemetry Raw packets
 

This is the latest recevied weather packets stored in our database for station/object OE6ATD-13. If no packets are shown the sender has not sent any weather packets the latest 10 day(s).

<< 34 35 36 37 38 39 40 >>
Time Temp. Humidity Pressure Rain* Wind** Luminosity Snow
1788181216 35° C 24% 1014.1 hPa 0 mm - 743 W/m² -
1788180627 34.44° C 24% 1014.1 hPa 0 mm - 767 W/m² -
1788180022 33.89° C 26% 1014.2 hPa 0 mm - 778 W/m² -
1788179419 32.78° C 27% 1014.3 hPa 0 mm - 807 W/m² -
1788178830 32.78° C 26% 1014.4 hPa 0 mm - 828 W/m² -
1788178225 33.33° C 29% 1014.4 hPa 0 mm - 830 W/m² -
1788177621 33.33° C 30% 1014.4 hPa 0 mm - 800 W/m² -
1788177017 33.33° C 30% 1014.5 hPa 0 mm - 856 W/m² -
1788176422 32.22° C 31% 1014.5 hPa 0 mm - 851 W/m² -
1788175817 32.78° C 30% 1014.7 hPa 0 mm - 713 W/m² -
1788175228 32.22° C 30% 1014.7 hPa 0 mm - 864 W/m² -
1788174623 32.22° C 33% 1014.8 hPa 0 mm - 869 W/m² -
1788174019 31.67° C 34% 1014.9 hPa 0 mm - 867 W/m² -
1788173424 31.11° C 35% 1015 hPa 0 mm - 868 W/m² -
1788172819 31.11° C 38% 1015 hPa 0 mm - 873 W/m² -
1788172230 31.11° C 39% 1015.1 hPa 0 mm - 863 W/m² -
1788171629 31.67° C 39% 1015.2 hPa 0 mm - 863 W/m² -
1788171025 31.11° C 40% 1015.4 hPa 0 mm - 854 W/m² -
1788170421 30.56° C 40% 1015.4 hPa 0 mm - 842 W/m² -
1788169816 30.56° C 41% 1015.5 hPa 0 mm - 832 W/m² -
1788169227 30.56° C 41% 1015.5 hPa 0 mm - 815 W/m² -
1788168624 31.11° C 41% 1015.6 hPa 0 mm - 806 W/m² -
1788168019 30.56° C 43% 1015.6 hPa 0 mm - 789 W/m² -
1788167430 29.44° C 45% 1015.6 hPa 0 mm - 747 W/m² -
1788166826 28.33° C 46% 1015.7 hPa 0 mm - 720 W/m² -

* Rain latest hour (hover to see other rain measurements)
** Current wind speed in m/s (hover to see current wind gust speed)